Portada
METAR-TAF:

METAR-TAF

Aeroports :

Weipa, Austràlia

latitud: 12-40-43S, longitud: 141-55-31E, altitud: 19 m

Observació

L'informe es va fer fa 45 minuts, a les 09:00 UTC
Vent 6 kt del Oest
Temperatura 28°C
Humitat 66%
Pressió 1008 hPa
Visibilitat 10 km o més
Núvols disperses a una alçada de 6100 ft
Núvols disperses a una alçada de 7100 ft

METAR: YBWP 170900Z AUTO 26006KT 9999 // SCT061 SCT071 28/21 Q1008

Hora: 19:45 (09:45 UTC)


TAF: manca

Observacions i pronòstics meteorològics de més de 4000 aeroports (METAR i TAF).

Les estacions disponibles són els punts grocs i vermells al mapa.

Posi el ratolí al punt desitjat per veure el nom de l'estació.

Feu clic per veure les observacions i els pronòstics meteorològics.

Per canviar el mapa: feu clic els botons verds amb una creu de color negre per apropar; al botó verd amb un guió per allunyar la imatge; o en les fletxes verdes per a mapes adjacents.


METAR-TAF: